"read_dt","SO2 (ppb)","flags","PMT voltage (V)","lamp voltage (V)","lamp intensity (Hz)","internal temp (C)","react chamber temp (C)","sample flow (l/min)","pres (mmHg)","SO2 bkg (ppb)","SO2 coefficient"
2016-07-05 00:00:00,2112E-3,5C000400,-0723,0828,12243,030.6,045.5,0.250,755.7,01.16,0.508
2016-07-05 00:01:00,2094E-3,5C000400,-0723,0828,12251,030.7,045.5,0.250,755.7,01.16,0.508
2016-07-05 00:02:00,2197E-3,5C000400,-0723,0827,12106,030.7,045.5,0.250,755.7,01.16,0.508
2016-07-05 00:03:00,2201E-3,5C000400,-0723,0828,12103,030.7,045.5,0.250,755.7,01.16,0.508
2016-07-05 00:04:00,2198E-3,5C000400,-0723,0828,12204,030.7,045.5,0.250,755.7,01.16,0.508
2016-07-05 00:05:00,2129E-3,5C000400,-0723,0828,12235,030.7,045.5,0.250,755.7,01.16,0.508
2016-07-05 00:06:00,2113E-3,5C000400,-0723,0827,12206,030.6,045.5,0.250,755.7,01.16,0.508
2016-07-05 00:07:00,2224E-3,5C000400,-0723,0827,12278,030.6,045.5,0.250,755.7,01.16,0.508
2016-07-05 00:08:00,2291E-3,5C000400,-0723,0827,12264,030.6,045.5,0.250,755.7,01.16,0.508
2016-07-05 00:09:00,2359E-3,5C000400,-0723,0827,12187,030.6,045.5,0.250,755.7,01.16,0.508
2016-07-05 00:10:00,2079E-3,5C000400,-0723,0827,12132,030.6,045.5,0.250,755.7,01.16,0.508
2016-07-05 00:11:00,2157E-3,5C000400,-0723,0829,12198,030.6,045.5,0.250,755.7,01.16,0.508
2016-07-05 00:12:00,2305E-3,5C000400,-0723,0828,12120,030.5,045.5,0.250,755.7,01.16,0.508
2016-07-05 00:13:00,2300E-3,5C000400,-0723,0828,12210,030.6,045.5,0.250,755.7,01.16,0.508
2016-07-05 00:14:00,2291E-3,5C000400,-0723,0828,12326,030.6,045.5,0.250,755.7,01.16,0.508
2016-07-05 00:15:00,2276E-3,5C000400,-0723,0828,12153,030.7,045.5,0.250,755.7,01.16,0.508
2016-07-05 00:16:00,2239E-3,5C000400,-0723,0828,12204,030.7,045.5,0.250,755.7,01.16,0.508
2016-07-05 00:17:00,2237E-3,5C000400,-0723,0828,12257,030.8,045.5,0.250,755.7,01.16,0.508
2016-07-05 00:18:00,2193E-3,5C000400,-0723,0828,12194,030.8,045.5,0.250,755.7,01.16,0.508
2016-07-05 00:19:00,2150E-3,5C000400,-0723,0828,12177,030.9,045.5,0.250,755.7,01.16,0.508
2016-07-05 00:20:00,2284E-3,5C000400,-0723,0828,12312,030.9,045.5,0.250,755.7,01.16,0.508
2016-07-05 00:21:00,2246E-3,5C000400,-0723,0828,12147,030.9,045.5,0.250,755.7,01.16,0.508
2016-07-05 00:22:00,2353E-3,5C000400,-0723,0828,12285,030.8,045.5,0.250,755.7,01.16,0.508
2016-07-05 00:23:00,2201E-3,5C000400,-0723,0827,12253,030.8,045.5,0.250,755.7,01.16,0.508
2016-07-05 00:24:00,2267E-3,5C000400,-0723,0828,12152,030.7,045.5,0.249,755.7,01.16,0.508
2016-07-05 00:25:00,2100E-3,5C000400,-0723,0827,12128,030.7,045.5,0.250,755.7,01.16,0.508
2016-07-05 00:26:00,2189E-3,5C000400,-0723,0828,12146,030.7,045.5,0.250,755.7,01.16,0.508
2016-07-05 00:27:00,2230E-3,5C000400,-0723,0828,12135,030.7,045.5,0.250,755.7,01.16,0.508
2016-07-05 00:28:00,2076E-3,5C000400,-0723,0828,12165,030.6,045.5,0.250,755.7,01.16,0.508
2016-07-05 00:29:00,2171E-3,5C000400,-0723,0828,12136,030.6,045.5,0.250,755.7,01.16,0.508
2016-07-05 00:30:00,2149E-3,5C000400,-0723,0827,12172,030.5,045.5,0.250,755.7,01.16,0.508
2016-07-05 00:31:00,2262E-3,5C000400,-0723,0828,12269,030.5,045.5,0.250,755.7,01.16,0.508
2016-07-05 00:32:00,2332E-3,5C000400,-0723,0828,12340,030.4,045.5,0.250,755.7,01.16,0.508
2016-07-05 00:33:00,2276E-3,5C000400,-0723,0828,12241,030.4,045.5,0.250,755.8,01.16,0.508
2016-07-05 00:34:00,2078E-3,5C000400,-0723,0828,12288,030.4,045.5,0.250,755.8,01.16,0.508
2016-07-05 00:35:00,2195E-3,5C000400,-0723,0827,12136,030.4,045.5,0.250,755.8,01.16,0.508
2016-07-05 00:36:00,2194E-3,5C000400,-0723,0828,12277,030.4,045.5,0.250,755.7,01.16,0.508
2016-07-05 00:37:00,2197E-3,5C000400,-0723,0828,12337,030.4,045.5,0.251,755.8,01.16,0.508
2016-07-05 00:38:00,2273E-3,5C000400,-0723,0827,12356,030.4,045.5,0.250,755.7,01.16,0.508
2016-07-05 00:39:00,2132E-3,5C000400,-0723,0828,12210,030.4,045.5,0.250,755.7,01.16,0.508
2016-07-05 00:40:00,2199E-3,5C000400,-0723,0827,12250,030.4,045.5,0.250,755.8,01.16,0.508
2016-07-05 00:41:00,2277E-3,5C000400,-0723,0828,12080,030.4,045.5,0.251,755.8,01.16,0.508
2016-07-05 00:42:00,2086E-3,5C000400,-0723,0828,12188,030.4,045.5,0.251,755.8,01.16,0.508
2016-07-05 00:43:00,2305E-3,5C000400,-0723,0828,12269,030.4,045.5,0.250,755.8,01.16,0.508
2016-07-05 00:44:00,2251E-3,5C000400,-0723,0828,12249,030.4,045.5,0.250,755.8,01.16,0.508
2016-07-05 00:45:00,2288E-3,5C000400,-0723,0827,12139,030.4,045.5,0.251,755.8,01.16,0.508
2016-07-05 00:46:00,2225E-3,5C000400,-0723,0827,12184,030.4,045.5,0.251,755.8,01.16,0.508
2016-07-05 00:47:00,2137E-3,5C000400,-0723,0827,12163,030.3,045.5,0.251,755.8,01.16,0.508
2016-07-05 00:48:00,2110E-3,5C000400,-0723,0828,12192,030.3,045.5,0.251,755.7,01.16,0.508
2016-07-05 00:49:00,2100E-3,5C000400,-0723,0829,12140,030.2,045.5,0.251,755.8,01.16,0.508
2016-07-05 00:50:00,2182E-3,5C000400,-0723,0827,12144,030.3,045.5,0.251,755.8,01.16,0.508
2016-07-05 00:51:00,2167E-3,5C000400,-0723,0828,12276,030.3,045.5,0.250,755.9,01.16,0.508
2016-07-05 00:52:00,2198E-3,5C000400,-0723,0828,12188,030.3,045.5,0.251,755.8,01.16,0.508
2016-07-05 00:53:00,2219E-3,5C000400,-0723,0828,12054,030.3,045.5,0.251,755.8,01.16,0.508
2016-07-05 00:54:00,2067E-3,5C000400,-0723,0828,12251,030.3,045.5,0.251,755.8,01.16,0.508
2016-07-05 00:55:00,2079E-3,5C000400,-0723,0828,12263,030.3,045.5,0.251,755.9,01.16,0.508
2016-07-05 00:56:00,2179E-3,5C000400,-0723,0827,12182,030.3,045.5,0.250,755.8,01.16,0.508
2016-07-05 00:57:00,2338E-3,5C000400,-0723,0828,12094,030.3,045.5,0.250,755.8,01.16,0.508
2016-07-05 00:58:00,2143E-3,5C000400,-0723,0827,12183,030.3,045.5,0.251,755.8,01.16,0.508
2016-07-05 00:59:00,2202E-3,5C000400,-0723,0827,12154,030.3,045.5,0.251,755.8,01.16,0.508
2016-07-05 01:00:00,2141E-3,5C000400,-0723,0828,12269,030.3,045.5,0.251,755.8,01.16,0.508
2016-07-05 01:01:00,2234E-3,5C000400,-0723,0828,12211,030.3,045.5,0.250,755.8,01.16,0.508
2016-07-05 01:02:00,2221E-3,5C000400,-0723,0827,12242,030.3,045.5,0.251,755.8,01.16,0.508
2016-07-05 01:03:00,2293E-3,5C000400,-0723,0827,12160,030.2,045.5,0.251,755.8,01.16,0.508
2016-07-05 01:04:00,2268E-3,5C000400,-0723,0827,12201,030.2,045.5,0.251,755.8,01.16,0.508
2016-07-05 01:05:00,2207E-3,5C000400,-0723,0828,12299,030.2,045.5,0.250,755.8,01.16,0.508
2016-07-05 01:06:00,2078E-3,5C000400,-0723,0827,12236,030.2,045.5,0.251,755.8,01.16,0.508
2016-07-05 01:07:00,2244E-3,5C000400,-0723,0828,12268,030.2,045.5,0.251,755.8,01.16,0.508
2016-07-05 01:08:00,2085E-3,5C000400,-0723,0828,12244,030.2,045.5,0.251,755.8,01.16,0.508
2016-07-05 01:09:00,2030E-3,5C000400,-0723,0828,12302,030.3,045.5,0.251,755.8,01.16,0.508
2016-07-05 01:10:00,2047E-3,5C000400,-0723,0827,12201,030.3,045.5,0.250,755.7,01.16,0.508
2016-07-05 01:11:00,2129E-3,5C000400,-0723,0828,12249,030.2,045.5,0.251,755.8,01.16,0.508
2016-07-05 01:12:00,2130E-3,5C000400,-0723,0828,12322,030.2,045.5,0.251,755.8,01.16,0.508
2016-07-05 01:13:00,2299E-3,5C000400,-0723,0828,12233,030.2,045.5,0.251,755.8,01.16,0.508
2016-07-05 01:14:00,2335E-3,5C000400,-0723,0828,12127,030.2,045.5,0.250,755.8,01.16,0.508
2016-07-05 01:15:00,2272E-3,5C000400,-0723,0828,12282,030.2,045.5,0.251,755.8,01.16,0.508
2016-07-05 01:16:00,2371E-3,5C000400,-0723,0828,12331,030.2,045.5,0.251,755.8,01.16,0.508
2016-07-05 01:17:00,2199E-3,5C000400,-0723,0827,12203,030.2,045.5,0.251,755.8,01.16,0.508
2016-07-05 01:18:00,2130E-3,5C000400,-0723,0828,12224,030.2,045.5,0.251,755.8,01.16,0.508
2016-07-05 01:19:00,2087E-3,5C000400,-0723,0828,12090,030.2,045.5,0.251,755.8,01.16,0.508
2016-07-05 01:20:00,2285E-3,5C000400,-0723,0828,12148,030.1,045.5,0.251,755.8,01.16,0.508
2016-07-05 01:21:00,2108E-3,5C000400,-0723,0828,12214,030.1,045.5,0.251,755.8,01.16,0.508
2016-07-05 01:22:00,2136E-3,5C000400,-0723,0827,12232,030.1,045.5,0.251,755.9,01.16,0.508
2016-07-05 01:23:00,2097E-3,5C000400,-0723,0827,12185,030.1,045.5,0.251,755.9,01.16,0.508
2016-07-05 01:24:00,2292E-3,5C000400,-0723,0828,12113,030.0,045.5,0.251,755.8,01.16,0.508
2016-07-05 01:25:00,2299E-3,5C000400,-0724,0828,12288,030.0,045.5,0.251,755.8,01.16,0.508
2016-07-05 01:26:00,2205E-3,5C000400,-0723,0828,12270,030.0,045.5,0.251,755.9,01.16,0.508
2016-07-05 01:27:00,2205E-3,5C000400,-0724,0827,12192,030.0,045.5,0.251,755.9,01.16,0.508
2016-07-05 01:28:00,2228E-3,5C000400,-0723,0828,12240,029.9,045.5,0.251,755.9,01.16,0.508
2016-07-05 01:29:00,2053E-3,5C000400,-0724,0827,12186,029.9,045.5,0.251,755.9,01.16,0.508
2016-07-05 01:30:00,2185E-3,5C000400,-0724,0828,12215,029.9,045.5,0.251,755.9,01.16,0.508
2016-07-05 01:31:00,2218E-3,5C000400,-0723,0827,12089,029.9,045.5,0.251,755.9,01.16,0.508
2016-07-05 01:32:00,2221E-3,5C000400,-0723,0828,12306,029.9,045.5,0.251,755.9,01.16,0.508
2016-07-05 01:33:00,2177E-3,5C000400,-0723,0827,12233,029.9,045.5,0.251,755.9,01.16,0.508
2016-07-05 01:34:00,2092E-3,5C000400,-0723,0828,12252,029.9,045.5,0.251,755.9,01.16,0.508
2016-07-05 01:35:00,2181E-3,5C000400,-0723,0827,12054,029.9,045.5,0.251,755.9,01.16,0.508
2016-07-05 01:36:00,2309E-3,5C000400,-0723,0827,12172,029.9,045.5,0.252,755.9,01.16,0.508
2016-07-05 01:37:00,2307E-3,5C000400,-0723,0827,12203,029.8,045.5,0.251,755.9,01.16,0.508
2016-07-05 01:38:00,2241E-3,5C000400,-0723,0828,12111,029.8,045.5,0.251,756.0,01.16,0.508
2016-07-05 01:39:00,2023E-3,5C000400,-0724,0827,12242,029.8,045.5,0.251,756.0,01.16,0.508
2016-07-05 01:40:00,2093E-3,5C000400,-0723,0827,12309,029.8,045.5,0.251,755.9,01.16,0.508
2016-07-05 01:41:00,2143E-3,5C000400,-0724,0828,12119,029.8,045.5,0.252,755.9,01.16,0.508
2016-07-05 01:42:00,2187E-3,5C000400,-0724,0827,12190,029.7,045.5,0.252,755.9,01.16,0.508
2016-07-05 01:43:00,2210E-3,5C000400,-0723,0828,12162,029.8,045.5,0.252,755.9,01.16,0.508
2016-07-05 01:44:00,2187E-3,5C000400,-0723,0829,12156,029.8,045.5,0.252,756.0,01.16,0.508
2016-07-05 01:45:00,2258E-3,5C000400,-0724,0827,12181,029.7,045.5,0.251,755.9,01.16,0.508
2016-07-05 01:46:00,2326E-3,5C000400,-0724,0828,12192,029.7,045.5,0.251,756.0,01.16,0.508
2016-07-05 01:47:00,2099E-3,5C000400,-0724,0827,12260,029.7,045.5,0.252,755.9,01.16,0.508
2016-07-05 01:48:00,2269E-3,5C000400,-0724,0828,12234,029.7,045.5,0.252,755.9,01.16,0.508
2016-07-05 01:49:00,2311E-3,5C000400,-0723,0828,12205,029.7,045.5,0.252,755.9,01.16,0.508
2016-07-05 01:50:00,2206E-3,5C000400,-0723,0827,12309,029.7,045.5,0.252,756.0,01.16,0.508
2016-07-05 01:51:00,2167E-3,5C000400,-0724,0829,12162,029.6,045.5,0.252,756.0,01.16,0.508
2016-07-05 01:52:00,2293E-3,5C000400,-0724,0827,12364,029.6,045.5,0.252,756.0,01.16,0.508
2016-07-05 01:53:00,2136E-3,5C000400,-0724,0828,12313,029.6,045.5,0.251,756.0,01.16,0.508
2016-07-05 01:54:00,2091E-3,5C000400,-0724,0828,12218,029.6,045.5,0.251,756.0,01.16,0.508
2016-07-05 01:55:00,2017E-3,5C000400,-0724,0827,12099,029.6,045.5,0.252,756.0,01.16,0.508
2016-07-05 01:56:00,2125E-3,5C000400,-0723,0828,12251,029.6,045.5,0.252,756.0,01.16,0.508
2016-07-05 01:57:00,2216E-3,5C000400,-0724,0827,12169,029.6,045.5,0.252,756.0,01.16,0.508
2016-07-05 01:58:00,2153E-3,5C000400,-0724,0827,12073,029.6,045.5,0.252,756.1,01.16,0.508
2016-07-05 01:59:00,2270E-3,5C000400,-0724,0828,12303,029.6,045.5,0.252,756.1,01.16,0.508
2016-07-05 02:00:00,2195E-3,5C000400,-0724,0828,12217,029.6,045.5,0.251,756.1,01.16,0.508
2016-07-05 02:01:00,2116E-3,5C000400,-0724,0827,12260,029.6,045.5,0.252,756.1,01.16,0.508
2016-07-05 02:02:00,2205E-3,5C000400,-0724,0827,12179,029.5,045.5,0.252,756.1,01.16,0.508
2016-07-05 02:03:00,2328E-3,5C000400,-0723,0827,12085,029.5,045.5,0.252,756.1,01.16,0.508
2016-07-05 02:04:00,2391E-3,5C000400,-0723,0827,12301,029.5,045.5,0.252,756.1,01.16,0.508
2016-07-05 02:05:00,2190E-3,5C000400,-0724,0827,12281,029.5,045.5,0.252,756.1,01.16,0.508
2016-07-05 02:06:00,2118E-3,5C000400,-0724,0828,12211,029.5,045.5,0.252,756.1,01.16,0.508
2016-07-05 02:07:00,2167E-3,5C000400,-0724,0828,12089,029.5,045.5,0.252,756.1,01.16,0.508
2016-07-05 02:08:00,2177E-3,5C000400,-0724,0828,12274,029.4,045.5,0.252,756.1,01.16,0.508
2016-07-05 02:09:00,2210E-3,5C000400,-0724,0827,12169,029.4,045.5,0.252,756.1,01.16,0.508
2016-07-05 02:10:00,2242E-3,5C000400,-0724,0828,12202,029.4,045.5,0.252,756.1,01.16,0.508
2016-07-05 02:11:00,2037E-3,5C000400,-0724,0828,12307,029.4,045.5,0.252,756.1,01.16,0.508
2016-07-05 02:12:00,2166E-3,5C000400,-0724,0828,12185,029.4,045.5,0.252,756.2,01.16,0.508
2016-07-05 02:13:00,2260E-3,5C000400,-0724,0827,12236,029.4,045.5,0.252,756.2,01.16,0.508
2016-07-05 02:14:00,2281E-3,5C000400,-0724,0828,12255,029.4,045.5,0.252,756.1,01.16,0.508
2016-07-05 02:15:00,2133E-3,5C000400,-0724,0828,12132,029.4,045.5,0.252,756.1,01.16,0.508
2016-07-05 02:16:00,2233E-3,5C000400,-0724,0827,12076,029.4,045.5,0.252,756.1,01.16,0.508
2016-07-05 02:17:00,2217E-3,5C000400,-0724,0827,12227,029.4,045.5,0.252,756.1,01.16,0.508
2016-07-05 02:18:00,2225E-3,5C000400,-0724,0827,12298,029.3,045.5,0.252,756.1,01.16,0.508
2016-07-05 02:19:00,2141E-3,5C000400,-0724,0827,12226,029.3,045.5,0.252,756.1,01.16,0.508
2016-07-05 02:20:00,2179E-3,5C000400,-0724,0827,12305,029.3,045.5,0.252,756.1,01.16,0.508
2016-07-05 02:21:00,2316E-3,5C000400,-0724,0827,12291,029.3,045.5,0.252,756.1,01.16,0.508
2016-07-05 02:22:00,2156E-3,5C000400,-0724,0827,12327,029.3,045.5,0.253,756.1,01.16,0.508
2016-07-05 02:23:00,2165E-3,5C000400,-0724,0827,12304,029.3,045.5,0.252,756.2,01.16,0.508
2016-07-05 02:24:00,2123E-3,5C000400,-0724,0828,12314,029.3,045.5,0.252,756.1,01.16,0.508
2016-07-05 02:25:00,2220E-3,5C000400,-0724,0827,12290,029.3,045.5,0.252,756.1,01.16,0.508
2016-07-05 02:26:00,2057E-3,5C000400,-0724,0828,12344,029.3,045.5,0.252,756.1,01.16,0.508
2016-07-05 02:27:00,2161E-3,5C000400,-0724,0827,12047,029.3,045.5,0.252,756.1,01.16,0.508
2016-07-05 02:28:00,2271E-3,5C000400,-0724,0827,12216,029.3,045.5,0.253,756.1,01.16,0.508
2016-07-05 02:29:00,2109E-3,5C000400,-0724,0827,12212,029.3,045.5,0.253,756.1,01.16,0.508
2016-07-05 02:30:00,2143E-3,5C000400,-0724,0827,12271,029.3,045.5,0.252,756.1,01.16,0.508
2016-07-05 02:31:00,2188E-3,5C000400,-0724,0828,12198,029.2,045.5,0.252,756.1,01.16,0.508
2016-07-05 02:32:00,2369E-3,5C000400,-0724,0827,12292,029.2,045.5,0.252,756.1,01.16,0.508
2016-07-05 02:33:00,2202E-3,5C000400,-0724,0828,12179,029.2,045.5,0.252,756.1,01.16,0.508
2016-07-05 02:34:00,2133E-3,5C000400,-0724,0827,12229,029.3,045.5,0.252,756.1,01.16,0.508
2016-07-05 02:35:00,2193E-3,5C000400,-0724,0827,12167,029.2,045.5,0.252,756.2,01.16,0.508
2016-07-05 02:36:00,2315E-3,5C000400,-0724,0828,12157,029.2,045.5,0.253,756.1,01.16,0.508
2016-07-05 02:37:00,2167E-3,5C000400,-0724,0828,12225,029.3,045.5,0.253,756.1,01.16,0.508
2016-07-05 02:38:00,2210E-3,5C000400,-0724,0827,12264,029.2,045.5,0.253,756.2,01.16,0.508
2016-07-05 02:39:00,2257E-3,5C000400,-0724,0828,12233,029.2,045.5,0.253,756.1,01.16,0.508
2016-07-05 02:40:00,2270E-3,5C000400,-0724,0827,12179,029.2,045.5,0.253,756.1,01.16,0.508
2016-07-05 02:41:00,2116E-3,5C000400,-0724,0828,12194,029.2,045.5,0.253,756.1,01.16,0.508
2016-07-05 02:42:00,2374E-3,5C000400,-0724,0828,12287,029.2,045.5,0.252,756.1,01.16,0.508
2016-07-05 02:43:00,2168E-3,5C000400,-0724,0828,12249,029.2,045.5,0.252,756.1,01.16,0.508
2016-07-05 02:44:00,2115E-3,5C000400,-0724,0827,12209,029.2,045.5,0.252,756.1,01.16,0.508
2016-07-05 02:45:00,2249E-3,5C000400,-0724,0827,12221,029.2,045.5,0.252,756.1,01.16,0.508
2016-07-05 02:46:00,2199E-3,5C000400,-0724,0827,12164,029.2,045.5,0.252,756.1,01.16,0.508
2016-07-05 02:47:00,2231E-3,5C000400,-0724,0827,12239,029.2,045.5,0.252,756.1,01.16,0.508
2016-07-05 02:48:00,2243E-3,5C000400,-0724,0827,12320,029.2,045.5,0.253,756.0,01.16,0.508
2016-07-05 02:49:00,2141E-3,5C000400,-0724,0828,12248,029.1,045.5,0.253,756.0,01.16,0.508
2016-07-05 02:50:00,2184E-3,5C000400,-0724,0827,12265,029.1,045.5,0.253,756.0,01.16,0.508
2016-07-05 02:51:00,2161E-3,5C000400,-0724,0827,12310,029.2,045.5,0.252,756.0,01.16,0.508
2016-07-05 02:52:00,2365E-3,5C000400,-0724,0827,12154,029.2,045.5,0.252,756.1,01.16,0.508
2016-07-05 02:53:00,2166E-3,5C000400,-0724,0827,12251,029.1,045.5,0.253,756.1,01.16,0.508
2016-07-05 02:54:00,2150E-3,5C000400,-0724,0828,12152,029.1,045.5,0.253,756.1,01.16,0.508
2016-07-05 02:55:00,2184E-3,5C000400,-0724,0827,12127,029.1,045.5,0.253,756.1,01.16,0.508
2016-07-05 02:56:00,2089E-3,5C000400,-0724,0827,12042,029.1,045.5,0.253,756.1,01.16,0.508
2016-07-05 02:57:00,2177E-3,5C000400,-0724,0827,12274,029.1,045.5,0.253,756.1,01.16,0.508
2016-07-05 02:58:00,2187E-3,5C000400,-0724,0826,12191,029.1,045.5,0.253,756.1,01.16,0.508
2016-07-05 02:59:00,2093E-3,5C000400,-0724,0827,12236,029.1,045.5,0.253,756.0,01.16,0.508
2016-07-05 03:00:00,2108E-3,5C000400,-0724,0827,12328,029.1,045.5,0.253,756.1,01.16,0.508
2016-07-05 03:01:00,2101E-3,5C000400,-0724,0828,12209,029.1,045.5,0.253,756.1,01.16,0.508
2016-07-05 03:02:00,2035E-3,5C000400,-0724,0828,12176,029.1,045.5,0.253,756.1,01.16,0.508
2016-07-05 03:03:00,2192E-3,5C000400,-0724,0828,12324,029.1,045.5,0.253,756.1,01.16,0.508
2016-07-05 03:04:00,2146E-3,5C000400,-0724,0827,12321,029.1,045.5,0.253,756.1,01.16,0.508
2016-07-05 03:05:00,2155E-3,5C000400,-0724,0827,12104,029.1,045.5,0.253,756.1,01.16,0.508
2016-07-05 03:06:00,2263E-3,5C000400,-0724,0827,12171,029.1,045.5,0.253,756.1,01.16,0.508
2016-07-05 03:07:00,2229E-3,5C000400,-0724,0827,12263,029.1,045.5,0.253,756.1,01.16,0.508
2016-07-05 03:08:00,2107E-3,5C000400,-0724,0827,12241,029.1,045.5,0.253,756.1,01.16,0.508
2016-07-05 03:09:00,2193E-3,5C000400,-0724,0827,12161,029.1,045.5,0.253,756.1,01.16,0.508
2016-07-05 03:10:00,2248E-3,5C000400,-0724,0827,12211,029.0,045.5,0.253,756.1,01.16,0.508
2016-07-05 03:11:00,2134E-3,5C000400,-0724,0827,12159,029.1,045.5,0.253,756.1,01.16,0.508
2016-07-05 03:12:00,2179E-3,5C000400,-0724,0827,12189,029.0,045.5,0.253,756.1,01.16,0.508
2016-07-05 03:13:00,2175E-3,5C000400,-0724,0827,12237,029.0,045.5,0.253,756.1,01.16,0.508
2016-07-05 03:14:00,2260E-3,5C000400,-0724,0827,12331,029.0,045.5,0.253,756.1,01.16,0.508
2016-07-05 03:15:00,2044E-3,5C000400,-0724,0827,12279,029.0,045.5,0.253,756.1,01.16,0.508
2016-07-05 03:16:00,2174E-3,5C000400,-0724,0827,12292,029.1,045.5,0.253,756.1,01.16,0.508
2016-07-05 03:17:00,2189E-3,5C000400,-0724,0827,12208,029.0,045.5,0.253,756.2,01.16,0.508
2016-07-05 03:18:00,2161E-3,5C000400,-0724,0827,12053,029.0,045.5,0.253,756.2,01.16,0.508
2016-07-05 03:19:00,2138E-3,5C000400,-0724,0827,12216,029.0,045.5,0.253,756.2,01.16,0.508
2016-07-05 03:20:00,2154E-3,5C000400,-0724,0828,12196,029.0,045.5,0.253,756.2,01.16,0.508
2016-07-05 03:21:00,2164E-3,5C000400,-0724,0827,12128,029.0,045.5,0.253,756.2,01.16,0.508
2016-07-05 03:22:00,2148E-3,5C000400,-0724,0827,12149,029.0,045.5,0.253,756.2,01.16,0.508
2016-07-05 03:23:00,2137E-3,5C000400,-0724,0827,12347,029.0,045.5,0.253,756.2,01.16,0.508
2016-07-05 03:24:00,2215E-3,5C000400,-0724,0827,12214,029.0,045.5,0.253,756.2,01.16,0.508
2016-07-05 03:25:00,2138E-3,5C000400,-0724,0828,12362,029.0,045.5,0.253,756.2,01.16,0.508
2016-07-05 03:26:00,2129E-3,5C000400,-0724,0828,12410,029.0,045.5,0.253,756.2,01.16,0.508
2016-07-05 03:27:00,2258E-3,5C000400,-0724,0828,12360,029.0,045.5,0.253,756.2,01.16,0.508
2016-07-05 03:28:00,2318E-3,5C000400,-0724,0828,12072,029.0,045.5,0.253,756.1,01.16,0.508
2016-07-05 03:29:00,2083E-3,5C000400,-0724,0827,12276,029.0,045.5,0.253,756.2,01.16,0.508
2016-07-05 03:30:00,2168E-3,5C000400,-0724,0827,12288,029.0,045.5,0.253,756.1,01.16,0.508
2016-07-05 03:31:00,2241E-3,5C000400,-0724,0826,12184,029.0,045.5,0.253,756.2,01.16,0.508
2016-07-05 03:32:00,2232E-3,5C000400,-0724,0827,12257,029.0,045.5,0.253,756.2,01.16,0.508
2016-07-05 03:33:00,2214E-3,5C000400,-0724,0827,12300,029.0,045.5,0.253,756.2,01.16,0.508
2016-07-05 03:34:00,2209E-3,5C000400,-0724,0827,12227,029.0,045.5,0.253,756.2,01.16,0.508
2016-07-05 03:35:00,2198E-3,5C000400,-0724,0827,12166,028.9,045.5,0.253,756.2,01.16,0.508
2016-07-05 03:36:00,2075E-3,5C000400,-0724,0828,12331,029.0,045.5,0.253,756.2,01.16,0.508
2016-07-05 03:37:00,2129E-3,5C000400,-0724,0827,12141,028.9,045.5,0.253,756.2,01.16,0.508
2016-07-05 03:38:00,2159E-3,5C000400,-0724,0827,12293,028.9,045.5,0.253,756.2,01.16,0.508
2016-07-05 03:39:00,2075E-3,5C000400,-0724,0827,12273,028.9,045.5,0.253,756.2,01.16,0.508
2016-07-05 03:40:00,2157E-3,5C000400,-0724,0827,12083,028.9,045.5,0.253,756.2,01.16,0.508
2016-07-05 03:41:00,2031E-3,5C000400,-0724,0827,12079,028.9,045.5,0.253,756.2,01.16,0.508
2016-07-05 03:42:00,2198E-3,5C000400,-0724,0827,12293,028.9,045.5,0.253,756.2,01.16,0.508
2016-07-05 03:43:00,2156E-3,5C000400,-0724,0827,12093,028.9,045.5,0.253,756.2,01.16,0.508
2016-07-05 03:44:00,2203E-3,5C000400,-0724,0827,12173,028.9,045.5,0.253,756.2,01.16,0.508
2016-07-05 03:45:00,2238E-3,5C000400,-0724,0827,12367,028.9,045.5,0.253,756.2,01.16,0.508
2016-07-05 03:46:00,2116E-3,5C000400,-0724,0827,12282,028.9,045.5,0.253,756.2,01.16,0.508
2016-07-05 03:47:00,2259E-3,5C000400,-0724,0827,12231,028.9,045.5,0.253,756.2,01.16,0.508
2016-07-05 03:48:00,2125E-3,5C000400,-0724,0827,12059,028.9,045.5,0.254,756.2,01.16,0.508
2016-07-05 03:49:00,2240E-3,5C000400,-0724,0827,12250,028.9,045.5,0.254,756.2,01.16,0.508
2016-07-05 03:50:00,2102E-3,5C000400,-0724,0827,12226,028.9,045.5,0.253,756.2,01.16,0.508
2016-07-05 03:51:00,2231E-3,5C000400,-0724,0826,12200,028.9,045.5,0.253,756.2,01.16,0.508
2016-07-05 03:52:00,2195E-3,5C000400,-0724,0827,12073,028.9,045.5,0.253,756.2,01.16,0.508
2016-07-05 03:53:00,2119E-3,5C000400,-0724,0827,12313,028.9,045.5,0.253,756.2,01.16,0.508
2016-07-05 03:54:00,2137E-3,5C000400,-0724,0827,12183,028.9,045.5,0.253,756.2,01.16,0.508
2016-07-05 03:55:00,2242E-3,5C000400,-0724,0827,12070,028.9,045.5,0.253,756.2,01.16,0.508
2016-07-05 03:56:00,2207E-3,5C000400,-0724,0827,12245,028.9,045.5,0.253,756.2,01.16,0.508
2016-07-05 03:57:00,2055E-3,5C000400,-0724,0827,12249,028.9,045.5,0.253,756.2,01.16,0.508
2016-07-05 03:58:00,2145E-3,5C000400,-0724,0827,12212,028.9,045.5,0.253,756.2,01.16,0.508
2016-07-05 03:59:00,2259E-3,5C000400,-0724,0828,12180,028.9,045.5,0.253,756.2,01.16,0.508
2016-07-05 04:00:00,2146E-3,5C000400,-0724,0827,12354,028.9,045.5,0.253,756.2,01.16,0.508
2016-07-05 04:01:00,2170E-3,5C000400,-0724,0827,12282,028.9,045.5,0.253,756.2,01.16,0.508
2016-07-05 04:02:00,2095E-3,5C000400,-0724,0827,12215,028.9,045.5,0.253,756.3,01.16,0.508
2016-07-05 04:03:00,2300E-3,5C000400,-0724,0826,12204,028.9,045.5,0.253,756.3,01.16,0.508
2016-07-05 04:04:00,2264E-3,5C000400,-0724,0827,12301,028.9,045.5,0.253,756.2,01.16,0.508
2016-07-05 04:05:00,2156E-3,5C000400,-0724,0826,12125,028.9,045.5,0.253,756.2,01.16,0.508
2016-07-05 04:06:00,2131E-3,5C000400,-0724,0827,12307,028.9,045.5,0.253,756.2,01.16,0.508
2016-07-05 04:07:00,2184E-3,5C000400,-0724,0827,12261,028.9,045.5,0.253,756.2,01.16,0.508
2016-07-05 04:08:00,2185E-3,5C000400,-0724,0828,12299,028.9,045.5,0.253,756.2,01.16,0.508
2016-07-05 04:09:00,2165E-3,5C000400,-0724,0827,12062,028.9,045.5,0.253,756.2,01.16,0.508
2016-07-05 04:10:00,2227E-3,5C000400,-0724,0827,12224,028.9,045.5,0.253,756.2,01.16,0.508
2016-07-05 04:11:00,2275E-3,5C000400,-0724,0827,12126,028.8,045.5,0.253,756.2,01.16,0.508
2016-07-05 04:12:00,2233E-3,5C000400,-0724,0827,12291,028.9,045.5,0.253,756.2,01.16,0.508
2016-07-05 04:13:00,2119E-3,5C000400,-0724,0827,12297,028.9,045.5,0.253,756.1,01.16,0.508
2016-07-05 04:14:00,2187E-3,5C000400,-0724,0827,12185,028.8,045.5,0.253,756.2,01.16,0.508
2016-07-05 04:15:00,2015E-3,5C000400,-0724,0828,12241,028.8,045.5,0.253,756.2,01.16,0.508
2016-07-05 04:16:00,2127E-3,5C000400,-0724,0827,12221,028.9,045.5,0.253,756.2,01.16,0.508
2016-07-05 04:17:00,2188E-3,5C000400,-0724,0828,12226,028.8,045.5,0.253,756.2,01.16,0.508
2016-07-05 04:18:00,2201E-3,5C000400,-0724,0828,12229,028.9,045.5,0.253,756.2,01.16,0.508
2016-07-05 04:19:00,2186E-3,5C000400,-0724,0827,12196,028.9,045.4,0.253,756.1,01.16,0.508
2016-07-05 04:20:00,2150E-3,5C000400,-0724,0828,12306,028.8,045.5,0.253,756.1,01.16,0.508